Printer-friendly version

IAU Minor Planet Center

Minor Planet Center

MPEC 2001-W43: 2001 WG2

The following Minor Planet Electronic Circular may be linked-to from your own Web pages, but must not otherwise be redistributed electronically.


Read MPEC 2001-W42 Read MPEC 2001-W44


M.P.E.C. 2001-W43                                Issued 2001 Nov. 21, 19:24 UT

     The Minor Planet Electronic Circulars contain information on unusual
         minor planets and routine data on comets.  They are published
   on behalf of Commission 20 of the International Astronomical Union by the
          Minor Planet Center, Smithsonian Astrophysical Observatory,
                          Cambridge, MA 02138, U.S.A.

             Prepared using the Tamkin Foundation Computer Network

                              MPC@CFA.HARVARD.EDU
          URL http://cfa-www.harvard.edu/iau/mpc.html  ISSN 1523-6714

                                   2001 WG2

Observations:
     K01W02G* C2001 11 18.36213 06 23 50.69 +16 14 03.4          19.0        704
     K01W02G  C2001 11 18.37698 06 23 49.57 +16 14 15.6          19.9        704
     K01W02G  C2001 11 18.39210 06 23 48.77 +16 14 27.0          19.6        704
     K01W02G  C2001 11 18.40755 06 23 47.77 +16 14 38.2          19.2        704
     K01W02G  C2001 11 18.42303 06 23 46.77 +16 14 50.6          19.7        704
     K01W02G  C2001 11 19.35647 06 22 49.40 +16 27 03.2          17.8        704
     K01W02G  C2001 11 19.36198 06 22 48.97 +16 27 07.0          18.0        704
     K01W02G  C2001 11 19.38584 06 22 47.43 +16 27 27.1          18.9        704
     K01W02G  C2001 11 19.39131 06 22 47.07 +16 27 31.4          18.6        704
     K01W02G  C2001 11 19.40054 06 22 46.46 +16 27 38.8          18.7        704
     K01W02G  C2001 11 19.40633 06 22 45.99 +16 27 43.9          18.5        704
     K01W02G  C2001 11 19.41524 06 22 45.48 +16 27 50.3          18.7        704
     K01W02G  C2001 11 19.42133 06 22 45.11 +16 27 55.0          18.4        704
     K01W02G  C2001 11 20.35909 06 21 43.21 +16 40 39.9          18.6        704
     K01W02G  C2001 11 20.36543 06 21 42.88 +16 40 43.8          18.2        704
     K01W02G  C2001 11 20.37335 06 21 42.30 +16 40 50.6          18.7        704
     K01W02G  C2001 11 20.37997 06 21 41.83 +16 40 56.9          19.1        704
     K01W02G  C2001 11 20.38797 06 21 41.26 +16 41 03.3          18.6        704
     K01W02G  C2001 11 20.39431 06 21 40.86 +16 41 08.6          18.8        704
     K01W02G  C2001 11 20.41062 06 21 39.67 +16 41 21.7          18.7        704
     K01W02G  C2001 11 20.41852 06 21 39.06 +16 41 28.6          18.8        704
     K01W02G  C2001 11 20.42526 06 21 38.64 +16 41 31.6          18.8        704
     K01W02G  C2001 11 20.68085 06 21 21.13 +16 45 07.8          17.9 V      402
     K01W02G  C2001 11 20.68217 06 21 21.02 +16 45 08.6                      402
     K01W02G  C2001 11 20.68348 06 21 20.93 +16 45 09.9                      402
     K01W02G  C2001 11 20.68480 06 21 20.83 +16 45 11.1                      402
     K01W02G  C2001 11 20.98714 06 20 59.63 +16 49 23.7          18.5 V      557
     K01W02G  C2001 11 20.99964 06 20 58.73 +16 49 35.1          17.4 R      046
     K01W02G  C2001 11 21.00126 06 20 58.61 +16 49 36.4                      046
     K01W02G  C2001 11 21.00266 06 20 58.51 +16 49 37.3                      046
     K01W02G  C2001 11 21.00449 06 20 58.35 +16 49 38.9                      046
     K01W02G  C2001 11 21.00613 06 20 58.27 +16 49 40.0          17.3 R      046
     K01W02G  C2001 11 21.01264 06 20 57.78 +16 49 45.6                      557
     K01W02G  C2001 11 21.32951 06 20 34.91 +16 54 18.2          19.0 R      850
     K01W02G  C2001 11 21.35104 06 20 33.30 +16 54 36.4          19.0 R      850
     K01W02G  C2001 11 21.40764 06 20 29.01 +16 55 24.9          19.0 R      850

Observer details:
046 Klet.  Observer M. Tichy.  0.57-m f/5.2 reflector + CCD.
402 Dynic Astronomical Observatory.  Observer A. Sugie.  0.60-m f/3.7 reflector
    + CCD.
557 Ondrejov.  Observers P. Pravec, P. Kusnirak.  0.65-m f/3.6 reflector + CCD.
704 Lincoln Laboratory ETS, New Mexico.  Observers M. Blythe, F. Shelly,
    M. Bezpalko, R. Huber, L. Manguso, S. Adams, J. Piscitelli.  Measurers
    J. Stuart, R. Sayer, J. B. Evans, H. Viggh.  1.0-m f/2.15 reflector + CCD.
850 Cordell-Lorenz Observatory, Sewanee.  Observer D. T. Durig.  0.3-m f/5.75
    Schmidt-Cassegrain + CCD.

Orbital elements:
2001 WG2
Epoch 2001 Nov. 7.0 TT = JDT 2452220.5                  MPC
M 292.74692              (2000.0)            P               Q
n   0.44229391     Peri.  133.15938     -0.67699369     +0.43478056
a   1.7060643      Node    81.60876     -0.71692628     -0.57201835
e   0.6750607      Incl.   36.88892     +0.16642191     -0.69552920
P   2.23           H   16.1           G   0.15
From 35 observations 2001 Nov. 18-21.

Ephemeris:
2001 WG2                 a,e,i = 1.71, 0.68, 37                  q = 0.5544
Date    TT    R. A. (2000) Decl.     Delta      r     Elong.  Phase     V
2001 11 17    06 25.13   +15 57.1    1.070    1.922   138.1    20.1    18.7
2001 11 27    06 12.42   +18 24.3    0.915    1.843   151.4    14.8    18.1
2001 12 07    05 50.69   +21 48.0    0.785    1.759   167.0     7.2    17.3
2001 12 17    05 18.01   +26 03.0    0.688    1.670   174.6     3.2    16.7
2001 12 27    04 34.88   +30 33.6    0.630    1.577   154.9    15.3    16.9
2002 01 06    03 46.35   +34 25.0    0.611    1.479   134.8    28.2    17.1
2002 01 16    03 00.36   +37 07.7    0.622    1.376   116.1    39.9    17.3
2002 01 26    02 22.38   +38 58.3    0.649    1.268    99.8    49.9    17.5
2002 02 05    01 52.70   +40 26.6    0.679    1.155    85.8    58.4    17.7
2002 02 15    01 28.54   +41 48.6    0.700    1.038    73.7    66.0    17.7
2002 02 25    01 05.82   +42 59.8    0.707    0.918    62.9    73.8    17.7
2002 03 07    00 40.11   +43 25.0    0.694    0.798    53.0    83.1    17.7
2002 03 17    00 08.66   +41 40.3    0.664    0.687    43.5    94.8    17.8
2002 03 27    23 35.75   +35 22.8    0.630    0.599    34.7   108.6    18.1

Brian G. Marsden             (C) Copyright 2001 MPC           M.P.E.C. 2001-W43

Read MPEC 2001-W42 Read MPEC 2001-W44


Our Web policy. Index to the CBAT/MPC/ICQ pages.


Valid HTML 4.01!